[[{"header":{"parameterUnit":"m.s-1","parameterCategory":1,"la1":30.2991,"la2":30.254,"lo1":-89.0895,"lo2":-89.0444,"dy":0.0017,"dx":0.0017,"nx":28,"ny":28,"refTime":"2024-07-20T09:00:00:Z","depth":0,"parameterNumber":2,"parameterNumberName":"U-component_of_WINDS"},"data":[0,0,0,0,0,0,0,0,0,0,0,0,0,0,0,0,0,0,0,0,0,0,0,0,0,0,0,0,0,0,0,0,0,0,0,0,0,0,0,0,0,0,0,0,0,0,0,0,0,0,0,0,0,0,0,0,0,0,0.9337,0.9337,0,0.936,0.936,0.936,0.9369,0.9369,0.9369,0.9368,0.9391,0.9391,0.9392,0,0,0,0,0,0,0,0,0,0,0,0,0,0.9297,0.9297,0.9337,0.9337,0.9337,0.936,0.936,0.936,0.9369,0.9369,0.9369,0.9368,0.9391,0.9391,0.9392,0,0,0,0,0,0,0,0,0,0,0,0,0,0.9316,0.9297,0.9336,0.9344,0.9345,0.936,0.936,0.936,0.9369,0.9369,0.9368,0.9368,0.939,0.9391,0.9392,0.9401,0,0,0.9395,0.9396,0,0,0,0,0,0,0,0,0.9315,0.9318,0.9343,0.9344,0.9345,0.9361,0.9354,0.9374,0.9369,0.936,0.9368,0.9368,0.9381,0.9383,0.9387,0.9402,0.9403,0.9395,0.9396,0.9396,0.9397,0,0,0,0,0,0,0,0.9314,0.9317,0.9346,0.9343,0.9344,0.9345,0.9348,0.9358,0.9371,0.936,0.9361,0.9364,0.9381,0.9386,0.9388,0.9403,0.9395,0.9396,0.9397,0.9397,0.9422,0.9422,0,0,0,0,0,0,0.9311,0.9315,0.9345,0.9346,0.9329,0.9346,0.9349,0.9356,0.9371,0.9373,0.9364,0.9364,0.9385,0.9387,0.9389,0.9398,0.9396,0.9397,0.9398,0.9422,0.9422,0.9422,0,0,0,0,0,0,0.931,0.9314,0.9344,0.9331,0.9335,0.9347,0.9355,0.9356,0.9361,0.9373,0.9375,0.9367,0.9385,0.9387,0.9397,0.9399,0.9398,0.9399,0.9422,0.9422,0.9422,0.9417,0,0,0,0,0,0,0.9309,0.9314,0.9318,0.9331,0.9336,0.9353,0.9355,0.9357,0.9363,0.9364,0.9376,0.9378,0.9385,0.9395,0.9398,0.94,0.9399,0.9422,0.9422,0.9422,0.9417,0.9417,0.9416,0,0,0,0,0,0.9308,0.9316,0.9318,0.9322,0.9341,0.9353,0.9356,0.9363,0.9363,0.9367,0.9374,0.9378,0.9398,0.9396,0.9399,0.9402,0.9422,0.9422,0.9422,0.9417,0.9417,0.9416,0,0,0,0,0,0,0.9303,0.9318,0.932,0.9333,0.9342,0.9355,0.936,0.9363,0.9372,0.9372,0.9381,0.9383,0.9392,0.9398,0.9396,0.9409,0.941,0.9411,0.9405,0.9405,0.9405,0.9403,0.94,0,0,0,0,0,0.9303,0.9312,0.9324,0.9334,0.9338,0.9348,0.9353,0.9358,0.9367,0.9371,0.9379,0.9387,0.9395,0.94,0.9409,0.9418,0.9419,0.942,0.942,0.942,0.942,0.9423,0.9423,0.9423,0.9423,0.9423,0,0,0.9304,0.9313,0.9318,0.9333,0.934,0.9348,0.9351,0.936,0.9365,0.9372,0.9382,0.9388,0.9397,0.9406,0.941,0.9411,0.9421,0.942,0.942,0.942,0.9423,0.9423,0.9423,0.9423,0.9423,0.9423,0,0,0.9309,0.9317,0.9325,0.9332,0.9343,0.9349,0.9351,0.9362,0.9366,0.9376,0.9381,0.9387,0.9401,0.9407,0.9412,0.9416,0.9419,0.9418,0.9417,0.942,0.942,0.942,0.942,0.942,0.9419,0.9419,0.9419,0,0.9308,0.9321,0.9329,0.9337,0.9342,0.9348,0.9355,0.9362,0.9374,0.9377,0.9378,0.9394,0.9401,0.9411,0.9411,0.9416,0.9417,0.9417,0.942,0.942,0.942,0.942,0.942,0.9418,0.9418,0.9418,0.9418,0,0.9319,0.9327,0.9332,0.9344,0.935,0.9357,0.9365,0.937,0.9374,0.9379,0.9387,0.9396,0.9404,0.9407,0.9411,0.9416,0.9416,0.9418,0.9419,0.9419,0.942,0.942,0.9418,0.9418,0.9418,0.9418,0,0,0.9323,0.9337,0.9338,0.9343,0.9354,0.936,0.9367,0.9375,0.9378,0.9386,0.9391,0.9402,0.9403,0.9408,0.9413,0.9415,0.9416,0.9417,0.9417,0.9415,0.942,0.9418,0.9418,0.9418,0.9418,0.9418,0.9419,0,0.9328,0.9341,0.9347,0.9357,0.9364,0.9368,0.9374,0.938,0.9385,0.9391,0.9396,0.9402,0.9404,0.9407,0.941,0.9415,0.9417,0.9415,0.9421,0.9421,0.9418,0.9418,0.9417,0.9417,0.9419,0.9419,0.9419,0,0.9337,0.9344,0.9355,0.9363,0.9366,0.9371,0.9378,0.9383,0.939,0.9393,0.9398,0.9402,0.9407,0.9408,0.9415,0.9414,0.9416,0.9419,0.9419,0.9419,0.942,0.9418,0.9417,0.9417,0.9419,0.9419,0.9419,0,0.9337,0.9349,0.9357,0.936,0.937,0.9373,0.9377,0.9384,0.9388,0.9394,0.9396,0.9402,0.9406,0.941,0.9415,0.9415,0.942,0.9422,0.9422,0.9422,0.9423,0.9423,0.9422,0.9426,0.9426,0.9426,0.9426,0,0.9343,0.9348,0.9356,0.9361,0.9366,0.9372,0.9378,0.9382,0.9387,0.9392,0.9396,0.94,0.9406,0.941,0.9414,0.9418,0.942,0.9421,0.9422,0.9421,0.942,0.9422,0.9422,0.9426,0.9426,0.9426,0.9426,0,0.9344,0.935,0.9357,0.9365,0.9367,0.9371,0.9378,0.9381,0.9385,0.939,0.9392,0.9398,0.9403,0.9408,0.9415,0.9417,0.9421,0.9422,0.9418,0.9419,0.9418,0.9418,0.9418,0.9418,0.9422,0.9422,0.9422,0,0.9347,0.9351,0.9359,0.9362,0.9366,0.9371,0.9375,0.938,0.9383,0.939,0.9392,0.9397,0.9402,0.9409,0.9413,0.9418,0.9419,0.9419,0.942,0.9417,0.9418,0.9417,0.9417,0.9419,0.9418,0.9418,0.9418,0,0.9351,0.9353,0.9358,0.9363,0.9367,0.9372,0.9377,0.9379,0.9385,0.9388,0.9393,0.9396,0.9402,0.9406,0.9411,0.9414,0.9417,0.9418,0.9418,0.9416,0.9413,0.9414,0.9417,0.9418,0.9418,0.9418,0.9418,0.9418,0.9352,0.9355,0.9361,0.9366,0.9369,0.9373,0.9376,0.938,0.9384,0.939,0.9392,0.9396,0.9401,0.9407,0.941,0.9413,0.9414,0.9414,0.9414,0.9414,0.9413,0.9413,0.9414,0.9414,0.9414,0.9414,0.9414,0,0.9355,0.9358,0.9363,0.9369,0.9372,0.9374,0.9378,0.9381,0.9385,0.9389,0.9392,0.9397,0.94,0.9405,0.9408,0.9409,0.941,0.941,0.941,0.941,0.9413,0.9412,0.9409,0.9409,0.9409,0.9409,0.9409,0.9409,0.9357,0.9362,0.9364,0.937,0.9373,0.9377,0.9379,0.9382,0.9385,0.939,0.9393,0.9395,0.9399,0.9402,0.9405,0.9406,0.9407,0.9406,0.9407,0.941,0.941,0.9411,0.941,0.9406,0.9406,0.9404,0.9404,0.9404]},{"header":{"parameterUnit":"m.s-1","parameterCategory":1,"la1":30.2991,"la2":30.254,"lo1":-89.0895,"lo2":-89.0444,"dy":0.0017,"dx":0.0017,"nx":28,"ny":28,"refTime":"2024-07-20T09:00:00:Z","depth":0,"parameterNumber":3,"parameterNumberName":"V-component_of_WINDS"},"data":[0,0,0,0,0,0,0,0,0,0,0,0,0,0,0,0,0,0,0,0,0,0,0,0,0,0,0,0,0,0,0,0,0,0,0,0,0,0,0,0,0,0,0,0,0,0,0,0,0,0,0,0,0,0,0,0,0,0,4.0115,4.0116,0,4.0203,4.0204,4.0205,4.0161,4.0158,4.0156,4.0154,4.0241,4.0245,4.025,0,0,0,0,0,0,0,0,0,0,0,0,0,3.9901,3.9906,4.0114,4.0116,4.0117,4.0203,4.0204,4.0205,4.0161,4.0158,4.0155,4.0153,4.0239,4.0245,4.025,0,0,0,0,0,0,0,0,0,0,0,0,0,3.9992,3.9907,4.0114,4.0105,4.0105,4.0203,4.0204,4.0206,4.0162,4.0158,4.0155,4.0151,4.0238,4.0244,4.0251,4.0362,0,0,4.0271,4.0274,0,0,0,0,0,0,0,0,3.9987,4.0,4.0105,4.0106,4.0106,4.0167,4.0161,4.0258,4.0162,4.014,4.0154,4.015,4.0219,4.0227,4.0251,4.0366,4.0369,4.0272,4.0276,4.0279,4.0281,0,0,0,0,0,0,0,3.9981,3.9996,4.0149,4.0107,4.0107,4.0095,4.0104,4.0179,4.0198,4.0142,4.0139,4.015,4.0218,4.0245,4.0253,4.0371,4.0272,4.0278,4.0282,4.0285,4.0576,4.058,0,0,0,0,0,0,3.9976,3.9991,4.0147,4.0152,4.0037,4.0101,4.0111,4.0151,4.0197,4.0201,4.0153,4.0148,4.0235,4.0245,4.0256,4.0386,4.0279,4.0285,4.0289,4.0573,4.0577,4.0581,0,0,0,0,0,0,3.9971,3.999,4.0143,4.0071,4.0089,4.0109,4.0154,4.0155,4.0181,4.0205,4.0208,4.0177,4.0233,4.0246,4.0335,4.0388,4.0288,4.0294,4.0568,4.0574,4.0579,4.0648,0,0,0,0,0,0,3.9965,3.9989,4.0033,4.0072,4.0093,4.0223,4.0157,4.0159,4.0193,4.0187,4.0228,4.0232,4.0231,4.0325,4.0342,4.0395,4.03,4.0563,4.0571,4.0577,4.0641,4.0655,4.0667,0,0,0,0,0,3.9958,4.0049,4.0035,4.0054,4.0149,4.0226,4.0238,4.0236,4.0198,4.024,4.0255,4.023,4.038,4.0335,4.0353,4.0409,4.056,4.0569,4.0577,4.0635,4.0652,4.0667,0,0,0,0,0,0,4.0014,4.0054,4.0039,4.0146,4.0183,4.0218,4.0273,4.0255,4.0303,4.0296,4.029,4.03,4.0391,4.0409,4.0358,4.0517,4.0464,4.0476,4.0502,4.0518,4.0531,4.0524,4.0305,0,0,0,0,0,4.0039,4.01,4.0131,4.0221,4.0241,4.0254,4.0287,4.0283,4.032,4.0336,4.0357,4.0394,4.0448,4.0485,4.0537,4.0644,4.065,4.0691,4.0704,4.0715,4.0725,4.0779,4.0797,4.0609,4.0608,4.0608,0,0,4.0091,4.012,4.0159,4.0233,4.0262,4.0322,4.0267,4.0335,4.0379,4.0345,4.043,4.0447,4.0487,4.0584,4.0628,4.0602,4.0779,4.0726,4.0734,4.0739,4.079,4.0808,4.0824,4.0614,4.0613,4.0612,0,0,4.0216,4.0246,4.0323,4.0352,4.0395,4.0403,4.0421,4.0459,4.0469,4.0554,4.0529,4.0581,4.0677,4.0705,4.0732,4.0865,4.0842,4.0882,4.095,4.1003,4.1018,4.1031,4.1076,4.1092,4.0893,4.0893,4.0893,0,4.0275,4.0367,4.0365,4.0433,4.0465,4.0438,4.0515,4.0543,4.0601,4.0622,4.0593,4.071,4.0735,4.0837,4.0869,4.0893,4.0911,4.0877,4.1017,4.103,4.1042,4.1084,4.1101,4.0897,4.0897,4.0896,4.0896,0,4.0435,4.0499,4.0556,4.0613,4.0651,4.0724,4.073,4.0769,4.076,4.077,4.0855,4.0884,4.094,4.0964,4.0957,4.1064,4.1046,4.1017,4.0963,4.1064,4.1103,4.112,4.0903,4.0902,4.09,4.0899,0,0,4.0599,4.0652,4.0672,4.0696,4.0741,4.0789,4.0859,4.0914,4.0946,4.0987,4.1043,4.1123,4.1095,4.1126,4.1121,4.1168,4.1267,4.1132,4.1133,4.1154,4.1384,4.1404,4.1423,4.1253,4.1256,4.1259,4.1379,0,4.0725,4.0848,4.0847,4.096,4.1017,4.099,4.105,4.1083,4.1094,4.1142,4.1153,4.1209,4.117,4.1187,4.1233,4.1246,4.1313,4.1237,4.1303,4.1305,4.1292,4.1444,4.1467,4.1579,4.1395,4.1398,4.14,0,4.0889,4.0934,4.1053,4.1086,4.111,4.1164,4.1213,4.1261,4.1296,4.13,4.1333,4.132,4.1388,4.1333,4.1425,4.1374,4.14,4.141,4.1414,4.1419,4.1357,4.145,4.1615,4.1631,4.1424,4.1422,4.1421,0,4.0992,4.1083,4.1165,4.1187,4.1229,4.1267,4.1285,4.1318,4.135,4.1392,4.1412,4.1462,4.1488,4.1526,4.1525,4.1486,4.1617,4.1563,4.162,4.162,4.1647,4.1645,4.1817,4.1669,4.1668,4.1668,4.1668,0,4.1132,4.1205,4.1212,4.1262,4.1342,4.1338,4.1417,4.1432,4.146,4.1511,4.1491,4.1539,4.1537,4.1585,4.1585,4.1659,4.1672,4.1675,4.1674,4.1676,4.1675,4.1692,4.1683,4.1672,4.1671,4.1671,4.167,0,4.1261,4.1269,4.1356,4.1388,4.1397,4.1455,4.1481,4.1527,4.1535,4.16,4.1614,4.1627,4.1682,4.1685,4.1749,4.1749,4.1838,4.1829,4.1826,4.1824,4.188,4.1873,4.2066,4.209,4.1928,4.193,4.1931,0,4.1349,4.1404,4.1441,4.1474,4.1495,4.1549,4.1581,4.1579,4.1613,4.1656,4.1697,4.175,4.1792,4.188,4.1894,4.1941,4.1932,4.1996,4.1939,4.1938,4.193,4.1926,4.193,4.2007,4.2009,4.201,4.2011,0,4.1502,4.1503,4.1551,4.16,4.1639,4.1677,4.1713,4.174,4.1742,4.1781,4.1837,4.187,4.1934,4.1986,4.2032,4.2049,4.203,4.2029,4.2044,4.2046,4.2041,4.2041,4.1854,4.2024,4.2023,4.2022,4.2021,4.2021,4.1612,4.1658,4.1691,4.1744,4.177,4.1804,4.1848,4.1861,4.1908,4.196,4.1956,4.2017,4.2048,4.2108,4.2128,4.2175,4.2153,4.2176,4.2181,4.2186,4.219,4.2035,4.2183,4.2183,4.2183,4.2182,4.2182,0,4.1762,4.1781,4.183,4.188,4.1921,4.19,4.1938,4.1973,4.2027,4.2058,4.21,4.2162,4.2212,4.2229,4.2276,4.231,4.2302,4.2322,4.2318,4.2322,4.2209,4.219,4.2327,4.2327,4.2327,4.2327,4.2327,4.2327,4.1844,4.1921,4.1925,4.2013,4.2032,4.2092,4.2115,4.2144,4.2168,4.2239,4.2281,4.2291,4.2316,4.2364,4.2408,4.2411,4.2429,4.2452,4.2452,4.2345,4.233,4.2316,4.2298,4.2457,4.2457,4.2561,4.2562,4.2562]}]]